www.pogodaiklimat.ru

Погода и климат >> Архив погоды >> Ирак >> Basrah


ПОГОДА в Basrah

  • Прогноз погоды в Basrah
  • Монитор погоды в Basrah
  • Климат города

АРХИВ ПОГОДЫ в Basrah

Время (UTC), дата Ветер
(напр.,м/с)
 
Видим.   Явления Облачность Т
(С)
Тd
(С)
f
(%)
Тe
(С)
Тes
(С)
Комфортность P
(гПа)
Po
(гПа)
Тmin
(С)
Tmax
(С)
R
(мм)
R24
(мм)
S
(см)
00 16.10 штиль 0 10 км ясно +23.0 +11.7 49 +25 +25 комфорт 1010.0 1010.0
03 16.10 З 2 10 км ясно +22.8 +10.1 45 +25 +25 комфорт 1011.2 1011.0
06 16.10 СВ 3 10 км ясно +29.6 +11.4 32 +30 +35 жарко 1012.4 1012.0 +22.5
09 16.10 штиль 0 10 км ясно +37.8 +9.4 18 +36 +53 опасность
солнечного
удара
1011.0 1011.0
12 16.10 СЗ 2 10 км ясно +37.8 +5.6 14 +35 +40 очень
жарко
1009.6 1010.0
15 16.10 С 3 10 км ясно +33.2 +7.2 20 +31 +31 жарко 1009.6 1010.0
18 16.10 СЗ 2 10 км ясно +29.0 +7.8 26 +28 +28 жарко 1010.4 1010.0 +39.0
21 16.10 С 3 10 км ясно +27.6 +5.3 24 +27 +27 жарко 1010.7 1011.0
06 17.10 С 3 10 км ясно +29.4 +6.1 23 +28 +33 жарко 1012.8 1013.0 +22.8
09 17.10 С 7 10 км ясно +35.4 +5.2 15 +33 +36 жарко 1011.6 1012.0
12 17.10 СВ 5 10 км ясно +36.2 +5.5 15 +34 +36 очень
жарко
1009.8 1010.0
18 17.10 С 2 10 км ясно +30.0 +3.7 19 +28 +28 жарко 1011.5 1012.0 +37.2
21 17.10 С 6 10 км ясно +27.4 +2.2 20 +26 +26 жарко 1011.3 1011.0
00 18.10 СЗ 5 10 км ясно +25.0 +2.3 23 +24 +24 комфорт 1012.8 1013.0
09 18.10 СЗ 4 10 км 6/5 1200 м
[Cu hum Ac trans]
+33.2 +5.9 18 +31 +35 жарко 1012.7 1013.0
12 18.10 СЗ 4 10 км 3/0
[Ac trans]
+37.4 +3.1 12 +34 +37 очень
жарко
1011.9 1012.0
15 18.10 СЗ 3 10 км 3/0
[Ac trans]
+32.2 +7.7 22 +31 +31 жарко 1012.5 1013.0
18 18.10 СЗ 5 10 км ясно +29.4 +4.2 20 +28 +28 жарко 1014.3 1014.0 +38.0
21 18.10 С 4 10 км ясно +27.4 +2.9 21 +26 +26 жарко 1014.5 1015.0
00 19.10 СЗ 5 10 км ясно +25.4 +2.4 22 +24 +24 комфорт 1014.3 1014.0
09 19.10 СЗ 3 10 км ясно +36.0 +3.6 13 +33 +43 жарко 1015.8 1016.0
12 19.10 СЗ 4 10 км ясно +37.0 +3.7 13 +34 +37 очень
жарко
1014.0 1014.0
15 19.10 СЗ 3 10 км ясно +32.8 +5.8 19 +31 +31 жарко 1014.3 1014.0
18 19.10 СЗ 4 10 км ясно +29.0 +4.7 21 +27 +27 жарко 1015.3 1015.0 +37.8
21 19.10 СЗ 3 10 км ясно +26.2 +3.3 23 +25 +25 комфорт 1014.6 1015.0
03 20.10 штиль 0 10 км ясно +23.8 +2.0 24 +23 +23 комфорт 1014.5 1015.0
06 20.10 С 2 10 км ясно +30.4 +3.9 19 +28 +34 жарко 1015.5 1016.0 +23.5
09 20.10 С 2 10 км ясно +35.5 +6.4 17 +33 +45 жарко 1014.6 1015.0
12 20.10 С 2 10 км ясно +37.2 +3.8 13 +34 +39 очень
жарко
1012.7 1013.0
15 20.10 штиль 0 10 км ясно +31.2 +7.1 22 +30 +30 жарко 1012.7 1013.0
21 20.10 С 2 10 км ясно +27.4 +2.2 20 +26 +26 жарко 1013.2 1013.0
00 21.10 СЗ 3 10 км ясно +25.2 -0.7 18 +23 +23 комфорт 1013.1 1013.0
03 21.10 штиль 0 10 км ясно +23.4 +1.3 23 +22 +22 комфорт 1013.1 1013.0
06 21.10 штиль 0 10 км ясно +27.5 +2.0 19 +26 +33 жарко 1014.0 1014.0 +23.0
09 21.10 СЗ 2 10 км ясно +34.2 +1.6 13 +31 +43 жарко 1012.5 1013.0
12 21.10 СЗ 2 10 км ясно +35.2 +1.6 12 +32 +36 жарко 1010.6 1011.0
15 21.10 штиль 0 10 км ясно +28.2 +7.5 27 +28 +28 жарко 1010.6 1011.0
18 21.10 штиль 0 10 км ясно +23.4 +6.4 33 +24 +24 комфорт 1011.3 1011.0 +36.3
21 21.10 СЗ 4 10 км ясно +26.2 +2.6 22 +25 +25 комфорт 1010.9 1011.0
00 22.10 СЗ 3 10 км ясно +24.8 +0.4 20 +23 +23 комфорт 1010.5 1011.0
03 22.10 ЮЗ 2 10 км ясно +19.2 +6.5 44 +20 +20 1011.4 1011.0
06 22.10 ЮЗ 2 10 км ясно +24.2 +6.5 32 +24 +30 комфорт 1012.7 1013.0 +18.5
09 22.10 С 2 10 км ясно +33.8 +1.4 13 +31 +42 жарко 1011.2 1011.0
12 22.10 СЗ 2 10 км ясно +35.6 +2.6 13 +32 +37 жарко 1009.8 1010.0
15 22.10 штиль 0 10 км ясно +30.9 +9.6 27 +30 +30 жарко 1010.4 1010.0
18 22.10 СЗ 2 10 км ясно +24.6 +7.7 34 +25 +25 комфорт 1011.7 1012.0 +36.6

 

Местоположение метеостанции Basrah (Ирак): широта 30.57 долгота 47.78 высота над уровнем моря 2 м.

В архиве по умолчанию представлена погода в Basrah за последнюю неделю. Архивные данные за месяц целиком и за предыдущие месяцы, начиная с января 2011 года, Вы можете получить, выбрав интересующий диапазон дат из раскрывающегося списка и нажав кнопку "Ввод!".

Внимание! Время в таблицах - всемирное. Для получения местного времени необходимо прибавить поправку, которая в Basrah равна 3 ч.

Смотрите также архив погоды в соседних городах и на ближайших метеорологических станциях:

Погода в Basrah Airport (Ирак) (6 км)
Погода в Abadan (Иран) (50 км)
Погода в Abdaly (Кувейт) (55 км)
Погода в Warba (Кувейт) (70 км)
Погода в Sabriyah (Кувейт) (91 км)
Погода в Mitribah (Кувейт) (92 км)
Погода в Fao (Ирак) (95 км)
Погода в Bubiyan (Кувейт) (106 км)
Погода в Ahwaz (Иран) (120 км)
Погода в Failaka Island (Кувейт) (131 км)

Пояснения к столбцам:

Ветер - указаны скорость ветра в м/с - средняя за 10 мин, порывы в срок и между сроками (в фигурных скобках) и направление, откуда дует ветер: С - северный, СВ - северо-восточный, В - восточный, ЮВ - юго-восточный, Ю - южный, ЮЗ - юго-западный, З - западный, СЗ - северо-западный.
Видимость - горизонтальная дальность видимости в метрах или километрах. При видимости от 1 до 10 км при отсутствии осадков обычно наблюдается дымка, при ухудшении видимости до 1 км и менее - туман. В сухую погоду видимость может ухудшаться дымом, пылью или мглою.
Явления - указаны атмосферные явления, наблюдавшиеся в срок или в последний час перед сроком; фигурными скобками обозначены явления, наблюдавшиеся между сроками (за 1-3 часа до срока); квадратными скобками обозначены град или гололедные отложения с указанием их диаметра в мм.
Облачность - указаны через наклонную черту общая и нижняя облачность в баллах и высота нижней границы облаков в метрах; квадратными скобками обозначены формы облаков: Ci - перистые, Cs - перисто-слоистые, Cc - перисто-кучевые, Ac - высококучевые, As - высокослоистые, Sc - слоисто-кучевые, Ns - слоисто-дождевые, Cu - кучевые, Cb - кучево-дождевые. Подробнее классификацию облаков см. в Атласе облаков (PDF).
T - Температура воздуха - температура, измеренная на высоте 2 м над землей.
Td - Температура точки росы - температура, при понижении до которой содержащийся в воздухе водяной пар достигнет насыщения.
f - Относительная влажность воздуха - влажноcть воздуха, измеренная на высоте 2 м над землей.
Te - Эффективная температура - температура, которую ощущает одетый по сезону человек в тени. Характеристика душности погоды. При расчете учитывается влияние влажности воздуха и скорости ветра на теплоощущения человека.
Tes - Эффективная температура на солнце - температура, которую ощущает человек, с поправкой на солнечный нагрев. Характеристика знойности погоды. Зависит от высоты солнца над горизонтом, облачности и скорости ветра. Ночью, в пасмурную погоду, а также при ветре 12 м/с и более поправка равна нулю.
P - Атмосферное давление - приведенное к уровню моря атмосферное давление.
Po - Атмосферное давление - измеренное на уровне метеостанции атмосферное давление.
Tmin - Минимальная температура - минимум температуры воздуха на высоте 2 м над землей.
Tmax - Максимальная температура - максимум температуры воздуха на высоте 2 м над землей.
R - Количество осадков - Количество выпавших осадков за период времени, мм. При наведении курсора мыши на число - период времени, за который выпало указанное количество осадков.
R24 - Количество осадков - Количество выпавших осадков за 24 часа, мм.
S - Снежный покров - Высота снежного покрова, см. При наведении курсора мыши на число - состояние снежного покрова и степень покрытия местности в баллах.